timestamp,wind_dir_avg,wind_spd_avg,wind_spd_max_dir,wind_spd_gust,battery_voltage,lat,long
2021-03-23 00:04:01+00:00,253.0,7.62,250.0,10.81,12.57,47.59359,-54.27349
2021-03-23 00:14:01+00:00,259.0,8.05,271.0,10.53,12.57,47.59359,-54.27349
2021-03-23 00:24:01+00:00,239.0,4.62,250.0,7.06,12.57,47.59359,-54.27349
2021-03-23 00:34:01+00:00,238.0,3.48,241.0,4.03,12.57,47.59359,-54.27349
2021-03-23 00:44:01+00:00,234.0,2.67,243.0,4.5,12.57,47.59359,-54.27349
2021-03-23 00:54:01+00:00,250.0,4.28,250.0,4.79,12.57,47.59359,-54.27349
2021-03-23 01:04:01+00:00,247.0,5.37,251.0,5.78,12.57,47.59359,-54.27349
2021-03-23 01:14:01+00:00,246.0,5.64,236.0,6.21,12.49,47.59359,-54.27349
2021-03-23 01:24:01+00:00,234.0,4.19,246.0,5.49,12.49,47.59359,-54.27349
2021-03-23 01:34:01+00:00,203.0,5.01,201.0,5.5,12.49,47.59359,-54.27349
2021-03-23 01:44:01+00:00,213.0,4.72,212.0,5.58,12.49,47.59359,-54.27349
2021-03-23 01:54:01+00:00,223.0,5.58,227.0,6.96,12.49,47.59359,-54.27349
2021-03-23 02:04:01+00:00,238.0,5.18,242.0,6.12,12.49,47.59359,-54.27349
2021-03-23 02:14:01+00:00,252.0,7.59,266.0,9.61,12.49,47.59359,-54.27349
2021-03-23 02:24:01+00:00,238.0,5.78,238.0,6.67,12.49,47.59359,-54.27349
2021-03-23 02:34:01+00:00,233.0,4.94,229.0,6.39,12.49,47.59359,-54.27349
2021-03-23 02:44:01+00:00,226.0,4.64,228.0,5.48,12.49,47.59359,-54.27349
2021-03-23 02:54:01+00:00,198.0,5.13,200.0,5.73,12.49,47.59359,-54.27349
2021-03-23 03:04:01+00:00,231.0,4.23,235.0,5.97,12.49,47.59359,-54.27349
2021-03-23 03:14:01+00:00,261.0,6.82,266.0,7.7,12.49,47.59359,-54.27349
2021-03-23 03:24:01+00:00,257.0,7.26,264.0,9.8,12.49,47.59359,-54.27349
2021-03-23 03:34:01+00:00,241.0,7.74,243.0,8.21,12.49,47.59359,-54.27349
2021-03-23 03:44:01+00:00,249.0,7.79,254.0,8.39,12.49,47.59359,-54.27349
2021-03-23 03:54:01+00:00,248.0,7.99,246.0,8.63,12.49,47.59359,-54.27349
2021-03-23 04:04:01+00:00,243.0,6.94,245.0,8.32,12.49,47.59359,-54.27349
2021-03-23 04:14:01+00:00,236.0,6.04,242.0,7.36,12.41,47.59359,-54.27349
2021-03-23 04:24:01+00:00,228.0,5.34,229.0,6.43,12.41,47.59359,-54.27349
2021-03-23 04:34:01+00:00,223.0,5.32,227.0,5.99,12.41,47.59359,-54.27349
2021-03-23 04:44:01+00:00,211.0,5.62,207.0,6.15,12.41,47.59359,-54.27349
2021-03-23 04:54:01+00:00,189.0,6.1,190.0,6.92,12.41,47.59359,-54.27349
2021-03-23 05:04:01+00:00,195.0,6.92,198.0,7.59,12.41,47.59359,-54.27349
2021-03-23 05:14:01+00:00,192.0,5.41,196.0,5.88,12.41,47.59359,-54.27349
2021-03-23 05:24:01+00:00,181.0,5.09,182.0,5.63,12.41,47.59359,-54.27349
2021-03-23 05:34:01+00:00,183.0,3.72,184.0,4.41,12.41,47.59359,-54.27349
2021-03-23 05:44:01+00:00,189.0,5.71,194.0,5.99,12.41,47.59359,-54.27349
2021-03-23 05:54:01+00:00,191.0,4.33,196.0,4.73,12.41,47.59359,-54.27349
2021-03-23 06:04:01+00:00,190.0,4.26,191.0,4.61,12.41,47.59359,-54.27349
2021-03-23 06:14:01+00:00,197.0,4.94,202.0,5.63,12.41,47.59359,-54.27349
2021-03-23 06:24:01+00:00,201.0,5.77,202.0,6.64,12.41,47.59359,-54.27349
2021-03-23 06:34:01+00:00,213.0,5.25,214.0,5.64,12.41,47.59359,-54.27349
2021-03-23 06:44:01+00:00,213.0,6.06,213.0,6.89,12.41,47.59359,-54.27349
2021-03-23 06:54:01+00:00,214.0,6.1,214.0,6.91,12.41,47.59359,-54.27349
2021-03-23 07:04:01+00:00,214.0,7.0,214.0,8.08,12.41,47.59359,-54.27349
2021-03-23 07:14:01+00:00,211.0,6.9,210.0,7.91,12.41,47.59359,-54.27349
2021-03-23 07:24:01+00:00,208.0,6.04,207.0,7.11,12.41,47.59359,-54.27349
2021-03-23 07:34:01+00:00,208.0,6.97,215.0,7.49,12.41,47.59359,-54.27349
2021-03-23 07:44:01+00:00,212.0,5.33,211.0,6.31,12.41,47.59359,-54.27349
2021-03-23 07:54:01+00:00,203.0,5.94,202.0,6.46,12.41,47.59359,-54.27349
2021-03-23 08:04:01+00:00,202.0,5.17,200.0,6.44,12.41,47.59359,-54.27349
2021-03-23 08:14:01+00:00,209.0,5.23,212.0,5.79,12.41,47.59359,-54.27349
2021-03-23 08:24:01+00:00,209.0,5.59,211.0,6.74,12.41,47.59359,-54.27349
2021-03-23 08:34:01+00:00,212.0,4.59,212.0,5.12,12.41,47.59359,-54.27349
2021-03-23 08:44:01+00:00,204.0,5.27,202.0,5.68,12.41,47.59359,-54.27349
2021-03-23 08:54:01+00:00,208.0,5.98,210.0,6.25,12.41,47.59359,-54.27349
2021-03-23 09:04:01+00:00,209.0,5.77,207.0,6.14,12.41,47.59359,-54.27349
2021-03-23 09:14:01+00:00,209.0,6.15,212.0,6.75,12.33,47.59359,-54.27349
2021-03-23 09:24:01+00:00,212.0,6.12,213.0,6.55,12.33,47.59359,-54.27349
2021-03-23 09:34:01+00:00,215.0,5.75,214.0,6.75,12.33,47.59359,-54.27349
2021-03-23 09:44:01+00:00,214.0,5.33,215.0,5.88,12.33,47.59359,-54.27349
2021-03-23 09:54:01+00:00,206.0,6.1,208.0,6.8,12.33,47.59359,-54.27349
2021-03-23 10:04:01+00:00,211.0,6.54,213.0,7.61,12.33,47.59359,-54.27349
2021-03-23 10:14:01+00:00,214.0,6.42,216.0,6.97,12.49,47.59359,-54.27349
2021-03-23 10:24:01+00:00,218.0,6.53,221.0,7.49,12.49,47.59359,-54.27349
2021-03-23 10:34:01+00:00,217.0,5.62,228.0,6.35,12.49,47.59359,-54.27349
2021-03-23 10:44:01+00:00,222.0,5.46,225.0,6.16,12.49,47.59359,-54.27349
2021-03-23 10:54:01+00:00,217.0,6.02,217.0,6.6,12.49,47.59359,-54.27349
2021-03-23 11:04:01+00:00,209.0,5.99,213.0,6.56,12.49,47.59359,-54.27349
2021-03-23 11:14:01+00:00,208.0,6.03,211.0,6.62,13.84,47.59359,-54.27349
2021-03-23 11:24:01+00:00,213.0,7.13,212.0,7.9,13.84,47.59359,-54.27349
2021-03-23 11:34:01+00:00,210.0,7.45,211.0,8.05,13.84,47.59359,-54.27349
2021-03-23 11:44:01+00:00,203.0,6.92,203.0,7.84,13.84,47.59359,-54.27349
2021-03-23 11:54:01+00:00,207.0,7.27,209.0,8.09,13.84,47.59359,-54.27349
2021-03-23 12:04:01+00:00,210.0,7.14,211.0,8.26,13.84,47.59359,-54.27349
2021-03-23 12:14:01+00:00,206.0,6.81,210.0,7.7,14.4,47.59359,-54.27349
2021-03-23 12:24:01+00:00,212.0,7.1,214.0,7.48,14.4,47.59359,-54.27349
2021-03-23 12:34:01+00:00,196.0,6.93,203.0,8.05,14.4,47.59359,-54.27349
2021-03-23 12:44:01+00:00,207.0,7.86,207.0,9.11,14.4,47.59359,-54.27349
2021-03-23 12:54:01+00:00,200.0,7.08,203.0,7.9,14.4,47.59359,-54.27349
2021-03-23 13:04:01+00:00,203.0,7.73,202.0,8.93,14.4,47.59359,-54.27349
2021-03-23 13:14:01+00:00,210.0,7.97,210.0,8.72,13.68,47.59359,-54.27349
2021-03-23 13:24:01+00:00,211.0,7.79,211.0,8.54,13.68,47.59359,-54.27349
2021-03-23 13:34:01+00:00,209.0,7.63,208.0,8.2,13.68,47.59359,-54.27349
2021-03-23 13:44:01+00:00,208.0,8.71,209.0,9.73,13.68,47.59359,-54.27349
2021-03-23 13:54:01+00:00,209.0,8.86,211.0,9.51,13.68,47.59359,-54.27349
2021-03-23 14:04:01+00:00,208.0,9.33,202.0,10.18,13.68,47.59359,-54.27349
2021-03-23 14:14:01+00:00,209.0,9.23,211.0,10.28,14.32,47.59359,-54.27349
2021-03-23 14:24:01+00:00,208.0,9.94,205.0,10.65,14.32,47.59359,-54.27349
2021-03-23 14:34:01+00:00,208.0,9.26,211.0,10.23,14.32,47.59359,-54.27349
2021-03-23 14:44:01+00:00,209.0,9.83,199.0,12.9,14.32,47.59359,-54.27349
2021-03-23 14:54:01+00:00,210.0,10.26,211.0,11.21,14.32,47.59359,-54.27349
2021-03-23 15:04:01+00:00,208.0,9.43,211.0,10.0,14.32,47.59359,-54.27349
2021-03-23 15:14:01+00:00,206.0,9.57,201.0,11.45,13.68,47.59359,-54.27349
2021-03-23 15:24:01+00:00,207.0,9.18,207.0,10.22,13.68,47.59359,-54.27349
2021-03-23 15:34:01+00:00,211.0,9.35,210.0,10.11,13.68,47.59359,-54.27349
2021-03-23 15:44:01+00:00,213.0,9.04,213.0,9.5,13.68,47.59359,-54.27349
2021-03-23 15:54:01+00:00,210.0,9.33,213.0,9.97,13.68,47.59359,-54.27349
2021-03-23 16:04:01+00:00,208.0,9.31,203.0,10.14,13.68,47.59359,-54.27349
2021-03-23 16:14:01+00:00,209.0,9.12,209.0,9.79,13.68,47.59359,-54.27349
2021-03-23 16:24:01+00:00,210.0,8.95,212.0,9.93,13.68,47.59359,-54.27349
2021-03-23 16:34:01+00:00,209.0,8.74,213.0,9.73,13.68,47.59359,-54.27349
2021-03-23 16:44:01+00:00,207.0,9.29,212.0,10.3,13.68,47.59359,-54.27349
2021-03-23 16:54:01+00:00,202.0,7.69,207.0,8.6,13.68,47.59359,-54.27349
2021-03-23 17:04:01+00:00,201.0,7.44,203.0,8.47,13.68,47.59359,-54.27349
2021-03-23 17:14:01+00:00,201.0,10.4,202.0,11.49,13.68,47.59359,-54.27349
2021-03-23 17:24:01+00:00,207.0,9.47,207.0,10.61,13.68,47.59359,-54.27349
2021-03-23 17:34:01+00:00,207.0,7.78,209.0,8.8,13.68,47.59359,-54.27349
2021-03-23 17:44:01+00:00,205.0,7.55,208.0,9.19,13.68,47.59359,-54.27349
2021-03-23 17:54:01+00:00,206.0,8.86,204.0,9.51,13.68,47.59359,-54.27349
2021-03-23 18:04:01+00:00,203.0,8.29,206.0,9.21,13.68,47.59359,-54.27349
2021-03-23 18:14:01+00:00,209.0,7.0,210.0,8.55,14.4,47.59359,-54.27349
2021-03-23 18:24:01+00:00,216.0,9.42,215.0,10.89,14.4,47.59359,-54.27349
2021-03-23 18:34:01+00:00,218.0,10.25,217.0,11.43,14.4,47.59359,-54.27349
2021-03-23 18:44:01+00:00,220.0,9.72,218.0,10.89,14.4,47.59359,-54.27349
2021-03-23 18:54:01+00:00,219.0,10.17,218.0,11.01,14.4,47.59359,-54.27349
2021-03-23 19:04:01+00:00,221.0,10.01,218.0,11.45,14.4,47.59359,-54.27349
2021-03-23 19:14:01+00:00,220.0,10.75,222.0,12.09,13.84,47.59359,-54.27349
2021-03-23 19:24:01+00:00,220.0,9.07,220.0,9.89,13.84,47.59359,-54.27349
2021-03-23 19:34:01+00:00,218.0,7.57,221.0,8.79,13.84,47.59359,-54.27349
2021-03-23 19:44:01+00:00,215.0,8.75,214.0,9.85,13.84,47.59359,-54.27349
2021-03-23 19:54:01+00:00,217.0,7.78,217.0,9.14,13.84,47.59359,-54.27349
2021-03-23 20:04:01+00:00,220.0,9.44,220.0,10.92,13.84,47.59359,-54.27349
2021-03-23 20:14:01+00:00,218.0,8.21,216.0,9.42,13.84,47.59359,-54.27349
2021-03-23 20:24:01+00:00,216.0,8.4,215.0,9.58,13.84,47.59359,-54.27349
2021-03-23 20:34:01+00:00,213.0,9.95,212.0,10.6,13.84,47.59359,-54.27349
2021-03-23 20:44:01+00:00,215.0,8.28,216.0,9.18,13.84,47.59359,-54.27349
2021-03-23 20:54:01+00:00,214.0,8.26,213.0,9.27,13.84,47.59359,-54.27349
2021-03-23 21:04:01+00:00,209.0,9.07,212.0,9.65,13.84,47.59359,-54.27349
2021-03-23 21:14:01+00:00,210.0,9.05,208.0,9.57,13.6,47.59359,-54.27349
2021-03-23 21:24:01+00:00,209.0,8.77,207.0,9.57,13.6,47.59359,-54.27349
2021-03-23 21:34:01+00:00,208.0,8.45,212.0,9.09,13.6,47.59359,-54.27349
2021-03-23 21:44:01+00:00,211.0,8.33,212.0,8.99,13.6,47.59359,-54.27349
2021-03-23 21:54:01+00:00,210.0,8.21,213.0,9.22,13.6,47.59359,-54.27349
2021-03-23 22:04:01+00:00,215.0,7.78,215.0,8.58,13.6,47.59359,-54.27349
2021-03-23 22:14:01+00:00,210.0,8.54,214.0,9.45,13.13,47.59359,-54.27349
2021-03-23 22:24:01+00:00,208.0,8.04,216.0,8.86,13.13,47.59359,-54.27349
2021-03-23 22:34:01+00:00,213.0,8.68,214.0,9.4,13.13,47.59359,-54.27349
2021-03-23 22:44:01+00:00,221.0,7.93,219.0,8.8,13.13,47.59359,-54.27349
2021-03-23 22:54:01+00:00,219.0,8.02,221.0,9.64,13.13,47.59359,-54.27349
2021-03-23 23:04:01+00:00,218.0,7.61,221.0,8.86,13.13,47.59359,-54.27349
2021-03-23 23:14:01+00:00,215.0,6.69,216.0,7.42,12.65,47.59359,-54.27349
2021-03-23 23:24:01+00:00,222.0,5.38,216.0,6.71,12.65,47.59359,-54.27349
2021-03-23 23:34:01+00:00,224.0,6.12,224.0,6.68,12.65,47.59359,-54.27349
2021-03-23 23:44:01+00:00,224.0,5.45,222.0,6.3,12.65,47.59359,-54.27349
2021-03-23 23:54:01+00:00,233.0,4.04,233.0,4.62,12.65,47.59359,-54.27349
